Regional Weather Roundup
Issued by NWS Cleveland, OH

Home | Current Version | Previous Version | Text Only | Print | Product List | Glossary Off
Versions: 1 2 3 4 5 6 7 8 9 10 11 12 13 14 15 16 17 18 19 20 21 22 23 24 25 26 27 28 29 30 31 32 33 34 35 36 37 38 39 40 41 42 43 44 45 46 47 48 49 50

000
ASUS41 KCLE 232002
RWRCLE
OHIO REGIONAL WEATHER ROUNDUP
NATIONAL WEATHER SERVICE CLEVELAND, OH
400 PM EDT FRI JUN 23 2017

NOTE: "FAIR" INDICATES FEW OR NO CLOUDS BELOW 12,000 FEET WITH NO
SIGNIFICANT WEATHER AND/OR OBSTRUCTIONS TO VISIBILITY.

OHZ001>008-015>018-024>027-034-035-043-044-232100-
   NORTHWEST OHIO

CITY           SKY/WX    TMP DP  RH WIND       PRES   REMARKS
DEFIANCE       CLOUDY    70  67  90 VRB3      29.67R
FINDLAY        PTSUNNY   72  66  81 W14       29.67R
TOLEDO EXPRESS LGT RAIN  72  71  97 SW13      29.64R
TOLEDO EXEC    PTSUNNY   77  70  79 SW17G24   29.63R
LIMA           LGT RAIN  68  68 100 SW14      29.70R
$$

OHZ009>014-019>023-028>033-038-089-232100-
   NORTHEAST OHIO

CITY           SKY/WX    TMP DP  RH WIND       PRES   REMARKS
CLE-HOPKINS    CLOUDY    75  70  84 W8        29.64S
CLE-LAKEFRONT  PTSUNNY   74  69  85 SW10      29.61S
CUY CO. ARPT   CLOUDY    75  72  88 SW9       29.63S
LORAIN-ELYRIA  CLOUDY    73  65  75 W8        29.63S
ASHTABULA      CLOUDY    74  72  93 SW13      29.62S
AKRON-CANTON   LGT RAIN  71  67  87 SW14      29.65F
WOOSTER        LGT RAIN  71  69  93 SW16      29.65F
MANSFIELD      PTSUNNY   71  70  96 SW9       29.66F
YOUNGSTOWN     LGT RAIN  70  68  93 SW10      29.64F
$$

OHZ042-051>053-060>062-070>072-077>081-232100-
  SOUTHWEST OHIO

CITY           SKY/WX    TMP DP  RH WIND       PRES   REMARKS
CINC-COVINGTON HVY RAIN  69  68  96 W18       29.73S VSB 1
CINC-LUNKEN    HVY RAIN  73  72  96 NW14      29.72F FOG
HAMILTON       HVY RAIN  69  69 100 CALM      29.76R FOG
DAYTON         RAIN      68  67  96 S7        29.73F FOG
WRIGHT-PAT AFB LGT RAIN  68  68 100 S7        29.74R FOG
DAYTON GENERAL HVY RAIN  68  67  96 S5        29.73F FOG
WILMINGTON     HVY RAIN  68  68 100 NW16G40   29.75R FOG
$$

OHZ036-037-039>041-045>050-054>059-063>069-073>076-082>088-232100-
  CENTRAL AND SOUTHEAST OHIO

CITY           SKY/WX    TMP DP  RH WIND       PRES   REMARKS
COLUMBUS       RAIN      71  70  96 SW8       29.71S FOG
OSU AIRPORT    RAIN      69  69 100 SW10      29.70F FOG
BOLTON FIELD   HVY RAIN  70  68  94 SW7       29.73F
RICKENBACK AFB RAIN      68  68 100 SW7       29.72F
NEWARK         LGT RAIN  71  69  93 SW9       29.70S
MARION         LGT RAIN  71  69  93 SW16      29.68S
LANCASTER      RAIN      68  67  96 W6        29.74F FOG
ZANESVILLE     LGT RAIN  74  71  91 SW6       29.70F
NEW PHILLY     NOT AVBL
$$



USA.gov is the U.S. government's official web portal to all federal, state and local government web resources and services.